DW5499 Weather Reports


time (UTC)temp
F
wind
direction
speed
knots
gust
knots
rain 1hr
in
rain 24hr
in
rain mn
in
humidity
%
barometer
mb
20260906133105 79 12 1.7 4.3 0.00 0.00 0.00 80 1014.6
20260906131538 78 37 1.7 3.5 0.00 0.00 0.00 83 1014.5
20260906130036 77 15 0.9 3.5 0.00 0.00 0.00 86 1014.3
20260906124535 76 6 0.9 2.6 0.00 0.00 0.00 88 1014.2
20260906123035 75 245 0.0 0.9 0.00 0.00 0.00 89 1014.1
20260906121531 76 245 0.0 2.6 0.00 0.00 0.00 89 1013.8
20260906120032 75 245 0.0 1.7 0.00 0.00 0.00 89 1013.5
20260906114541 75 245 0.0 2.6 0.00 0.00 0.00 88 1013.4
20260906113026 76 265 0.0 2.6 0.00 0.00 0.00 89 1013.3
20260906111524 75 265 0.0 1.7 0.00 0.00 0.00 88 1013.3
20260906110024 75 265 0.0 2.6 0.00 0.00 0.00 87 1013.2
20260906104524 76 350 0.0 1.7 0.00 0.00 0.00 87 1013.0
20260906103020 76 350 0.0 0.0 0.00 0.00 0.00 87 1013.1
20260906101523 76 350 0.9 1.7 0.00 0.00 0.00 87 1013.0
20260906100024 76 335 1.7 3.5 0.00 0.00 0.00 87 1013.1
20260906094518 77 247 0.0 2.6 0.00 0.00 0.00 86 1013.1
20260906093017 77 247 0.0 1.7 0.00 0.00 0.00 86 1013.0
20260906091522 77 247 0.0 1.7 0.00 0.00 0.00 86 1012.8
20260906090016 76 247 0.0 0.0 0.00 0.00 0.00 85 1012.7
20260906084513 77 247 1.7 3.5 0.00 0.00 0.00 84 1012.6
20260906083012 77 247 0.0 1.7 0.00 0.00 0.00 84 1012.5
20260906081517 77 247 0.0 1.7 0.00 0.00 0.00 83 1012.4
20260906080013 78 247 0.0 0.9 0.00 0.00 0.00 84 1012.3
20260906074509 78 247 0.0 0.9 0.00 0.00 0.00 84 1012.4
20260906073008 78 247 0.0 1.7 0.00 0.00 0.00 84 1012.4
20260906071506 78 247 0.0 2.6 0.00 0.00 0.00 83 1012.5
20260906070004 79 230 0.9 1.7 0.00 0.00 0.00 83 1012.6
20260906064501 79 39 0.0 0.9 0.00 0.00 0.00 82 1012.6
20260906063059 79 39 0.0 0.0 0.00 0.00 0.00 83 1012.8
20260906061600 80 39 0.0 0.9 0.00 0.00 0.00 83 1012.9
20260906060056 80 39 0.0 0.9 0.00 0.00 0.00 82 1012.9
20260906054603 80 39 0.9 3.5 0.00 0.00 0.00 81 1012.9
20260906053059 81 202 0.0 0.0 0.00 0.00 0.00 80 1012.9
20260906051608 81 202 0.0 0.9 0.00 0.00 0.00 80 1012.9
20260906050050 81 202 0.0 0.0 0.00 0.00 0.00 80 1012.8
20260906044554 81 202 0.0 0.9 0.00 0.00 0.00 80 1012.8
20260906043049 82 202 0.0 1.7 0.00 0.00 0.00 79 1012.7
20260906041552 82 202 0.0 1.7 0.00 0.00 0.00 78 1012.6
20260906040124 82 202 0.9 1.7 0.00 0.00 0.00 78 1012.4
20260906034600 83 206 0.0 1.7 0.00 0.00 0.00 79 1012.4
20260906033102 83 206 0.0 1.7 0.00 0.00 0.00 79 1012.3
20260906031546 83 231 0.9 3.5 0.00 0.00 0.00 77 1012.2
20260906030046 84 239 1.7 2.6 0.00 0.00 0.00 76 1011.9
20260906024552 85 200 0.9 1.7 0.00 0.00 0.00 76 1011.8
20260906023050 86 200 0.0 0.9 0.00 0.00 0.00 75 1011.7
20260906021545 87 236 0.0 1.7 0.00 0.00 0.00 74 1011.5
20260906020045 88 353 0.0 1.7 0.00 0.00 0.00 71 1011.2
20260906014544 89 353 0.0 0.9 0.00 0.00 0.00 66 1011.0
20260906013044 89 353 0.0 1.7 0.00 0.00 0.00 64 1011.0
20260906011543 90 353 0.0 1.7 0.00 0.00 0.00 63 1010.9
20260906010044 90 51 0.0 2.6 0.00 0.00 0.00 62 1010.8
20260906004543 91 31 1.7 3.5 0.00 0.00 0.00 62 1010.8
20260906003042 92 350 1.7 4.3 0.00 0.00 0.00 60 1010.9
20260906001542 93 41 1.7 3.5 0.00 0.00 0.00 56 1010.8
20260906000042 94 8 1.7 3.5 0.00 0.00 0.00 54 1010.8
20260905234544 94 340 0.9 2.6 0.00 0.00 0.00 54 1010.7
20260905233047 95 49 0.9 2.6 0.00 0.00 0.00 51 1010.6
20260905231540 95 41 1.7 3.5 0.00 0.00 0.00 50 1010.6
20260905230039 95 45 1.7 3.5 0.00 0.00 0.00 50 1010.6
20260905224608 96 69 1.7 3.5 0.00 0.00 0.00 49 1010.6
20260905223044 96 37 1.7 4.3 0.00 0.00 0.00 48 1010.6
20260905221537 96 45 2.6 4.3 0.00 0.00 0.00 48 1010.6
20260905220037 97 49 3.5 7.0 0.00 0.00 0.00 45 1010.7
20260905214543 97 89 2.6 6.1 0.00 0.00 0.00 44 1010.8
20260905213033 97 35 3.5 6.1 0.00 0.00 0.00 45 1011.1
20260905211541 98 64 1.7 5.2 0.00 0.00 0.00 46 1011.3
20260905210040 97 18 4.3 6.1 0.00 0.00 0.00 46 1011.7
20260905204528 97 53 3.5 7.0 0.00 0.00 0.00 46 1011.8
20260905203028 97 345 1.7 7.0 0.00 0.00 0.00 47 1011.9
20260905201527 96 67 2.6 7.0 0.00 0.00 0.00 48 1012.0
20260905200028 96 26 5.2 7.0 0.00 0.00 0.00 48 1012.2
20260905194525 96 6 2.6 6.1 0.00 0.00 0.00 48 1012.5
20260905193024 96 76 1.7 5.2 0.00 0.00 0.00 47 1012.7
20260905191524 95 37 1.7 5.2 0.00 0.00 0.00 51 1012.8
20260905190024 96 71 2.6 5.2 0.00 0.00 0.00 51 1012.9
20260905184529 97 134 2.6 4.3 0.00 0.00 0.00 50 1012.9
20260905183024 97 157 1.7 5.2 0.00 0.00 0.00 48 1013.1
20260905181521 96 111 1.7 5.2 0.00 0.00 0.00 51 1013.2
20260905180017 95 184 1.7 5.2 0.00 0.00 0.00 56 1013.3
20260905174515 94 117 1.7 5.2 0.00 0.00 0.00 56 1013.6
20260905173012 92 36 2.6 4.3 0.00 0.00 0.00 61 1013.8
20260905171509 92 101 1.7 3.5 0.00 0.00 0.00 62 1013.9
20260905170009 89 72 2.6 4.3 0.00 0.00 0.00 66 1014.1
20260905164513 90 27 1.7 4.3 0.00 0.00 0.00 64 1014.2
20260905163005 91 146 1.7 4.3 0.00 0.00 0.00 61 1014.0
20260905161506 89 78 0.9 4.3 0.00 0.00 0.00 63 1014.1
20260905160100 89 72 2.6 4.3 0.00 0.00 0.00 64 1014.0
20260905154608 88 95 1.7 4.3 0.00 0.00 0.00 63 1013.8
20260905153054 87 81 0.9 3.5 0.00 0.00 0.00 64 1013.7
20260905151551 86 213 0.9 3.5 0.00 0.00 0.00 66 1013.6
20260905150051 85 120 0.9 2.6 0.00 0.00 0.00 70 1013.6
20260905144546 84 43 0.0 1.7 0.00 0.00 0.00 68 1013.5
20260905143042 83 139 0.0 2.6 0.00 0.00 0.00 73 1013.4
20260905141541 80 92 0.0 1.7 0.00 0.00 0.00 78 1013.5
20260905140040 79 126 0.9 2.6 0.00 0.00 0.00 79 1013.5
20260905134539 78 122 0.9 2.6 0.00 0.00 0.00 79 1013.5